Winnemucca, NV

12:03 AM PDT on September 22, 2017 (GMT -0700)
Winnemucca Municipal

Weather History for KWMC - August, 2013

Change the Weather History Date:

Tuesday, August 20, 2013

  Actual Average Record
Temperature  
Mean Temperature 78 °F 69 °F  
Max Temperature 96 °F 91 °F 101 °F (2009)
Min Temperature 60 °F 48 °F 30 °F (1974)
Degree Days  
Heating Degree Days 0 1  
Month to date heating degree days 0 4  
Since 1 June heating degree days 70 119  
Since 1 July heating degree days 0 14  
Cooling Degree Days 13 5  
Month to date cooling degree days 124 136  
Year to date cooling degree days 626 469  
Since 1 June cooling degree days 625 458  
Growing Degree Days 28 (Base 50)    
Moisture  
Dew Point 46 °F    
Average Humidity 32    
Maximum Humidity 48    
Minimum Humidity 15    
Precipitation  
Precipitation 0.02 in 0.00 in 0.58 in (1990)
Month to date precipitation 0.03 0.11  
Year to date precipitation 2.29 5.29  
Snow  
Snow 0.00 in 0.00 in 0.00 in (1877)
Month to date snowfall 0.0 0.0  
Since 1 June snowfall T T  
Since 1 July snowfall T 0.0  
Snow Depth 0.00 in    
Sea Level Pressure  
Sea Level Pressure 29.92 in    
Wind  
Wind Speed 7 mph (SSE)    
Max Wind Speed 24 mph    
Max Gust Speed 32 mph    
Visibility 10 miles    
Events Rain , Thunderstorm    
T = Trace of Precipitation, MM = Missing Value Source: NWS Daily Summary

Daily Weather History Graph

Daily Weather History Graph

Search for Another Location

Airport or City:

Trip Planner

Search our weather history database for the weather conditions in past years. The results will help you decide how hot, cold, wet, or windy it might be!

Date:

Astronomy

Aug. 20, 2013 Rise Set
Actual Time 6:06 AM PDT 7:41 PM PDT
Civil Twilight 5:37 AM PDT 8:10 PM PDT
Nautical Twilight 5:02 AM PDT 8:45 PM PDT
Astronomical Twilight 4:25 AM PDT 9:22 PM PDT
Moon 7:15 PM PDT (8/20) 5:42 AM PDT (8/20)
Length of Visible Light 14h 33m
Length of Day
13h 35m
Full, 100% of the Moon is Illuminated
Aug 20
Full
Aug 20
Full
Aug 28
Last Quarter
Sep 5
New
Sep 12
First Quarter

Hourly Weather History & Observations

Time (PDT) Temp. Dew Point Humidity Pressure Visibility Wind Dir Wind Speed Gust Speed Precip Events Conditions
12:56 AM 61.0 °F 39.9 °F 46% 29.90 in 10.0 mi SSE 6.9 mph - N/A   Clear
1:56 AM 68.0 °F 39.0 °F 35% 29.90 in 10.0 mi SSE 13.8 mph - N/A   Clear
2:56 AM 71.1 °F 42.1 °F 35% 29.89 in 10.0 mi SSW 5.8 mph - N/A   Partly Cloudy
3:56 AM 66.0 °F 42.1 °F 42% 29.89 in 10.0 mi WNW 4.6 mph - N/A   Clear
4:56 AM 64.0 °F 39.9 °F 41% 29.90 in 10.0 mi Calm Calm - N/A   Clear
5:56 AM 63.0 °F 42.1 °F 46% 29.90 in 10.0 mi East 4.6 mph - N/A   Clear
6:56 AM 64.0 °F 45.0 °F 50% 29.93 in 10.0 mi Calm Calm - N/A   Clear
7:56 AM 72.0 °F 44.1 °F 37% 29.92 in 10.0 mi Calm Calm - N/A   Clear
8:56 AM 75.9 °F 45.0 °F 33% 29.94 in 10.0 mi East 4.6 mph - N/A   Clear
9:56 AM 80.1 °F 46.9 °F 31% 29.94 in 10.0 mi SE 4.6 mph - N/A   Clear
10:56 AM 84.9 °F 45.0 °F 25% 29.93 in 10.0 mi SSE 3.5 mph - N/A   Clear
11:56 AM 88.0 °F 43.0 °F 21% 29.91 in 10.0 mi Variable 4.6 mph - N/A   Clear
12:56 PM 90.0 °F 42.1 °F 19% 29.88 in 10.0 mi Calm Calm - N/A   Clear
1:56 PM 93.9 °F 42.1 °F 17% 29.84 in 10.0 mi NW 8.1 mph - N/A   Clear
2:56 PM 95.0 °F 41.0 °F 15% 29.81 in 10.0 mi Calm Calm - N/A   Clear
3:56 PM 91.9 °F 39.9 °F 16% 29.80 in 10.0 mi SSW 4.6 mph - N/A   Partly Cloudy
4:16 PM 91.4 °F 41.0 °F 17% 29.97 in 10.0 mi NNW 9.2 mph - N/A Thunderstorm Thunderstorm
4:49 PM 82.4 °F 46.4 °F 28% 29.97 in 10.0 mi SE 12.7 mph 23.0 mph 0.00 in Rain Light Rain
4:56 PM 80.1 °F 51.1 °F 36% 29.83 in 10.0 mi SSE 17.3 mph 24.2 mph 0.00 in Rain Light Rain
5:23 PM 82.4 °F 48.2 °F 30% 29.97 in 10.0 mi East 9.2 mph - 0.00 in Thunderstorm Thunderstorm
5:39 PM 82.4 °F 48.2 °F 30% 29.97 in 10.0 mi Variable 5.8 mph - 0.00 in   Mostly Cloudy
5:56 PM 82.9 °F 48.0 °F 29% 29.83 in 10.0 mi SE 11.5 mph 16.1 mph 0.00 in   Partly Cloudy
6:21 PM 82.4 °F 48.2 °F 30% 30.00 in 9.0 mi Calm Calm - 0.00 in Rain , Thunderstorm Light Thunderstorms and Rain
6:56 PM 75.9 °F 53.1 °F 45% 29.85 in 10.0 mi SE 11.5 mph - 0.02 in Thunderstorm Thunderstorm
7:40 PM 75.2 °F 51.8 °F 44% 29.98 in 10.0 mi South 13.8 mph 19.6 mph N/A   Scattered Clouds
7:56 PM 75.9 °F 50.0 °F 40% 29.86 in 10.0 mi SSE 13.8 mph - N/A   Partly Cloudy
8:56 PM 75.0 °F 50.0 °F 41% 29.90 in 10.0 mi Variable 4.6 mph 20.7 mph N/A   Scattered Clouds
9:20 PM 71.6 °F 51.8 °F 50% 30.05 in 10.0 mi SSE 9.2 mph - N/A Thunderstorm Thunderstorm
9:35 PM 71.6 °F 51.8 °F 50% 30.05 in 10.0 mi South 12.7 mph - N/A   Clear
9:56 PM 72.0 °F 50.0 °F 46% 29.90 in 10.0 mi South 17.3 mph 23.0 mph N/A   Clear
10:34 PM 75.2 °F 46.4 °F 36% 30.06 in 10.0 mi South 20.7 mph 26.5 mph N/A Thunderstorm Thunderstorm
10:56 PM 73.9 °F 48.0 °F 40% 29.90 in 10.0 mi South 19.6 mph 25.3 mph N/A Thunderstorm Thunderstorm
11:06 PM 75.2 °F 48.2 °F 38% 30.07 in 10.0 mi SSE 18.4 mph - N/A   Overcast
11:56 PM 70.0 °F 52.0 °F 53% 29.99 in 2.0 mi SSE 11.5 mph 28.8 mph N/A   Haze